Regional Weather Roundup
Issued by NWS

Home | Current Version | Previous Version | Text Only | Print | Product List | Glossary On
Versions: 1 2 3 4 5 6 7 8 9 10 11 12 13 14 15 16 17 18 19 20 21 22 23 24 25 26 27 28 29 30 31 32 33 34 35 36 37 38 39 40 41 42 43 44 45 46 47 48 49 50
000
ASUS42 KFFC 220110
RWRGA
WEATHER ROUNDUP FOR GEORGIA
NATIONAL WEATHER SERVICE PEACHTREE CITY GA
900 PM EDT THU SEP 21 2017

NOTE: "FAIR" INDICATES FEW OR NO CLOUDS BELOW 12,000 FEET WITH NO
SIGNIFICANT WEATHER AND/OR OBSTRUCTIONS TO VISIBILITY.

* = USE WITH CAUTION. THE STATIONS MARKED WITH AN ASTERISK MAY NOT
REPORT WEATHER SUCH AS PRECIPITATION, FOG, OR THUNDER AND ARE NOT
QUALITY CONTROLLED BY NWS.

THE REMARK "TC" DENOTES TEMPERATURE READING IN DEGREES CELSIUS.

GAZ001>058-220200-
NORTH GEORGIA

CITY           SKY/WX    TMP DP  RH WIND       PRES   REMARKS
ATLANTA        MOCLDY    79  65  62 NW6       30.03R
ATHENS         PTCLDY    73  68  84 CALM      30.03R
CHAMBLEE       CLEAR     76  66  71 S5        30.03R
PEACHTREE CITY PTCLDY    77  74  90 CALM      30.03R
ROME           CLEAR     77  73  87 CALM      30.01R
WEST ATLANTA   PTCLDY    80  68  66 SW3       30.02R
GAINESVILLE    PTCLDY    74  66  76 CALM      30.07R
CARTERSVILLE   CLEAR     71  71 100 CALM      30.03R


CITY           SKY/WX    TMP DP  RH WIND       PRES   REMARKS
DALTON*        CLEAR     73  70  88 CALM      30.04R
LAWRENCEVILLE* PTCLDY    75  68  78 CALM      30.05R
MARIETTA       PTCLDY    78  66  66 CALM      30.03R
KENNESAW*      CLEAR     77  67  71 CALM      30.05R
CANTON*        CLEAR     73  70  88 CALM      30.06R
$$

GAZ059>098-102>109-220200-
CENTRAL GEORGIA

CITY           SKY/WX    TMP DP  RH WIND       PRES   REMARKS
AUGUSTA-BUSH   MOCLDY    77  70  79 CALM      30.00R
AUGUSTA-DANIEL PTCLDY    81  68  64 SE7       30.02R
COLUMBUS       PTCLDY    83  69  62 SE5       29.99R
MACON          PTCLDY    77  68  73 SE7       30.00R
ROBINS AFB     CLEAR     76  68  74 S5        29.99R


CITY           SKY/WX    TMP DP  RH WIND       PRES   REMARKS
LAGRANGE*      CLEAR     74  74  98 CALM      30.02R
SYLVANIA*      PTCLDY    74  71  93 CALM      30.03R
MILLEDGEVILLE* PTCLDY    77  73  88 CALM      30.01R
$$

GAZ099>101-110>166-220200-
SOUTH GEORGIA

CITY           SKY/WX    TMP DP  RH WIND       PRES   REMARKS
SAVANNAH       PTCLDY    78  72  81 E3        30.02R
VALDOSTA       MOCLDY    72  72 100 CALM      29.97R
ALMA           MOCLDY    74  72  93 CALM      29.99R FOG
ST SIMONS      PTCLDY    80  72  76 E5        29.99R
FT STEWART     PTCLDY    77  71  81 CALM      29.99R
ALBANY         MOCLDY    79  68  69 NW3       30.00R
HUNTER AFB     PTCLDY    78  73  84 CALM      29.99R
MOODY AFB      MOCLDY    72  71  95 CALM      29.97R
BRUNSWICK      PTCLDY    73  70  88 CALM      30.00R


CITY           SKY/WX    TMP DP  RH WIND       PRES   REMARKS
BAINBRIDGE*    CLOUDY    77  73  88 CALM      29.97S
MOULTRIE*      MOCLDY    72  68  88 CALM      29.98S
VIDALIA*       MOCLDY    73  72  94 E3        30.02R
WAYCROSS*      MOCLDY    77  74  90 CALM      29.99R
DOUGLAS*       CLOUDY    73  68  83 CALM      30.01R
$$



USA.gov is the U.S. government's official web portal to all federal, state and local government web resources and services.